Voltar ao catálogo

NOAA 16 DEB

AtivoSSO
NORAD 42384·DEBRIS·🇺🇸 United States

Lançado Sep 21, 2000 de Vandenberg Space Force Base

Loading…

Próximas Passagens (próximas 24 horas)

TLE

AtualizadoSource: Space-Track

Época: Sep 13, 2026, 11:04 UTC

1 42384U 00055SC  26256.46120271  .00002899  00000-0  10407-2 0  9997
2 42384  98.6602 334.6185 0013007  56.2731 303.9692 14.34603637544630

Acompanhe NOAA 16 DEB em tempo real com AllMySat

Download on the App Store